Regional Weather Roundup
Issued by NWS

Home | Current Version | Previous Version | Graphics & Text | Print | Product List | Glossary On
Versions: 1 2 3 4 5 6 7 8 9 10 11 12 13 14 15 16 17 18 19 20 21 22 23 24 25 26 27 28 29 30 31 32 33 34 35 36 37 38 39 40 41 42 43 44 45 46 47 48 49 50
000
ASUS45 KSLC 082310
RWRUT

UTAH REGIONAL WEATHER ROUNDUP
NATIONAL WEATHER SERVICE SALT LAKE CITY UT
400 PM MST MON FEB 08 2016

UTZ001>011-023>025-090000-

NORTHERN UTAH

CITY           SKY/WX    TMP DP  RH WIND       PRES   REMARKS
BRIGHAM CITY   SUNNY     32  25  76 N3        30.65F
HILL AFB       SUNNY     38  24  58 NW5       30.62F WCI  34
LOGAN          MOSUNNY   24  19  81 N3        30.65F HAZE
OGDEN          MOSUNNY   35  25  66 NW6       30.63S WCI  30
PROVO AIRPORT  MOSUNNY   28  19  69 CALM      30.64F
SALT LAKE CITY SUNNY     38  28  67 NW8       30.63F HAZE    WCI  32
VERNAL         CLOUDY    30  17  58 CALM      30.55S
WENDOVER       SUNNY     39  28  65 SE3       30.64S
HEBER CITY     SUNNY     32  18  55 CALM      30.58S
WEST JORDAN    SUNNY     36  30  80 NW6       30.63S WCI  31

$$

UTZ012>022-026-027-090000-

SOUTHERN/CENTRAL UTAH

CITY           SKY/WX    TMP DP  RH WIND       PRES   REMARKS
BLANDING       SUNNY     46  28  50 S5        30.52S
BRYCE CANYON   SUNNY     37  23  56 NE9       30.55R WCI  30
CEDAR CITY     SUNNY     38  27  64 W6        30.55S WCI  33
DELTA          SUNNY     27  22  81 CALM      30.63S
HANKSVILLE     SUNNY     39  27  60 CALM      30.55F
MILFORD        SUNNY     32  25  75 N15       30.59F WCI  22
MOAB/CYNLANDS  MOSUNNY   33  23  66 N8        30.52S WCI  26
PRICE          MOSUNNY   38  21  50 E3        30.51S
ST GEORGE      CLEAR     63  25  23 W3        30.42F
KANAB          SUNNY     61  27  27 E16       30.46F

$$

REGIONAL REPORTS     COLORADO/ARIZONA

CITY           SKY/WX    TMP DP  RH WIND       PRES   REMARKS
CRAIG, CO      CLOUDY    25  16  68 CALM      30.53F
GRAND JUNCTION CLOUDY    35  26  69 NW5       30.51S WCI  31
RIFLE          SUNNY     38  20  48 CALM      30.50F
MONTROSE       CLOUDY    39  20  46 CALM      30.52F
CORTEZ         CLOUDY    50  24  36 NW17G31   30.38S
PAGE, AZ       SUNNY     50  25  37 NE5       30.46F
GRAND CANYON   SUNNY     53  20  27 NE16G23   30.48R
KINGMAN        SUNNY     68  20  16 N9        30.30F
FLAGSTAFF      SUNNY     50  16  25 NE21      30.43F

$$

REGIONAL REPORTS    NEVADA/IDAHO/WYOMING

CITY           SKY/WX    TMP DP  RH WIND       PRES   REMARKS
LAS VEGAS, NV  SUNNY     72  23  16 NE10      30.30F
ELY            SUNNY     34  23  64 CALM      30.59F
ELKO           SUNNY     33  22  63 NE7       30.62F WCI  27
POCATELLO, ID  CLOUDY    29  26  89 N5        30.66F WCI  24
BURLEY         MOSUNNY   34  29  82 NE10      30.63R WCI  26
EVANSTON, WY   CLOUDY    31  19  61 N6        30.58S WCI  25
ROCK SPRINGS   CLOUDY    36  26  67 SW23      30.47F WCI  24
KEMMERER       CLOUDY    32  23  69 W14       30.54R WCI  22

$$



USA.gov is the U.S. government's official web portal to all federal, state and local government web resources and services.